Location: Days
(41.3591°N, 106.7339°W)
Time: 18:17:09
(UTC+00:00)

O/OREOS (USA 219) - Pass Details

Date: 02 July 2022
Orbit: 621 x 646 km, 72.0° (Epoch: 22 May)

Event Time Altitude Azimuth Distance (km) Brightness Sun altitude
Rises 05:57:35 0° 355° (N) 2,963 ? -23.4°
Reaches altitude 10° 06:01:05 10° 22° (NNE) 2,051 ? -23.6°
Maximum altitude 06:03:18 13° 51° (NE) 1,840 ? -23.7°
Enters shadow 06:05:28 10° 80° (E) 2,040 ? -23.8°
